Weather in Leningradskiy

Russia / Samara Oblast     52°26′18″N   51°08′24″E
temp.,
°C
wind,
m/s
gust,
m/s
humid.,
%
clouds,
%
prec.,
mm/h
press.,
hPa
HPBL,
m
3 march, wed
wed301:00−2sw5997100 0.9 1003398
04:00−2wsw3598100 1.7 1003135
07:00−2nw3598100 0.5 1002113
10:00−3wnw3595100 0.5 1003181
13:00−2wnw469683 0.1 1004346
16:00−2wnw689188 0.2 1004672
19:00−4wnw51093100 0.2 1006423
22:00−7wnw5119599 0.4 1008292
4 march, thu
thu401:00−10wnw499692 0.1 1008180
04:00−13w479776 0.1 1010120
07:00−13wsw589662 0.0 1009136
10:00−10sw7139554 0.0 1009320
13:00−5sw91494100 0.1 1007605
16:00−3sw111694100 0.3 1005906
19:000wsw111797100 2.4 10031055
22:000wsw101596100 3.1 1005906
5 march, fri
fri501:00−1wsw91595100 1.1 1005788
04:00−2sw71491100 1.2 1004566
07:00−3sw81595100 0.1 1004460
10:00−1sw91596100 2.4 1003735
13:00+1sw917100100 1.4 1002723
16:00+1wsw916100100 2.1 1003688
19:000wnw71198100 0.4 1005598
22:00−7nnw3697100 0.7 1010125
6 march, sat
sat601:00−12n239772 0.0 101221
04:00−14n129382 0.0 101520
07:00−12se1284100 0.0 101521
10:00−9se2384100 0.0 1014112
13:00−6se2384100 0.0 1011239
16:00−6ne2295100 0.4 1009156
19:00−7nnw3496100 0.6 1009119
22:00−10wnw489799 0.6 1010168
7 march, sun
sun701:00−13nw499771 0.0 1011159
04:00−16wnw349770 0.0 101349
07:00−19wnw45934 0.0 101480
10:00−17w35942 0.0 1015174
13:00−14wsw35890 0.0 1015251
16:00−13ssw47920 0.0 1015259
19:00−12ssw6129440 0.0 1013293
22:00−10ssw8159370 0.1 1011451